カタログに戻る

ICEYE-X4

運用中科学PO
NORAD 44390·PAYLOAD·🇫🇮 Finland

打ち上げ Jul 5, 2019 から Vostochny Cosmodrome

Loading…

次のパス (今後24時間)

TLE

最新Source: Space-Track

元期: Sep 14, 2026, 14:09 UTC

1 44390U 19038D   26257.58961804  .00009189  00000-0  30845-3 0  9994
2 44390  97.8690 295.8511 0012258 358.2149   1.9045 15.31046889395474

AllMySatでICEYE-X4をリアルタイム追跡

Download on the App Store